STARLINK-2643 (48367 NORAD) Tracking and Keplerian Element Data

This shows tracking and keplerian element data for the satellite.

Feedback or suggestion? Click here.




ElementValue
Catalog48367
NameSTARLINK-2643
Epoch Orbit1393
Epoch Day214.60360136
Epoch Year2021
RAAN333.8046
Inclination53.0536
Eccentricity0.0001131
Argument of Perigee96.0771
Mean Anonmoly264.0347
Mean Motion15.06389975
Decay Rate-9.59E-06
L11 48367U 21038Q 21214.60360136 -.00000959 00000-0 -45506-4 0 9996
L22 48367 53.0536 333.8046 0001131 96.0771 264.0347 15.06389975 13930

Live tracking and technical data element details for STARLINK-2643 (NORAD 48367). STARLINK-2643 can be tracked NOW for your location showing map with azimuth and elevation plus other details from your city location.

Track the satellite on the map from your city or location and see movement details for azimuth, elevation, latitude, longitude, range, height, and movement on the map or in text.







IsCatalogInMostPopularTable: catalog: 48367, numindb: 30
Update: records affected: 1



GetName: 48367 STARLINK-2643

Hit Count: updated at: Tue, 03 Aug 2021 23:08:13 GMT